NOAA 16 DEB, 41516

Orbit data source: Space-Track

NOAA 16 DEB, 41516 is space debris in SSO originally from a launch on Thu, 21 Sep 2000 UTC launched from the Air Force Western Test Range (AFWTR). Debris objects in space refer to the collection of defunct objects orbiting the Earth. Examples of debris include non-operational satellites, rocket bodies, and fragments generated from explosions, collisions, or faulty payload assembly.

Loading next visibility...
Identifier
41516, 2000-055MQ
Orbit
SSO
Country
Flag of USUS
Related business
Manufacturer
Unknown
Mission
Spacecraft
Bus & Motor
Unknown
Mass
Unknown
Launch date (UTC)
2000-09-21 (26 years ago)
Launch vehicle
Unknown
Launch site
Air Force Western Test Range (AFWTR)
Object type
Payload
Rocket body
Debris
Shape & HBR
Unknown shape, 0.1 m
Radar Cross Section
Small (<0.1 m²)

Expand to show TLE details & history
Last TLE update: 2 days ago

TLE from 2 days ago
0 NOAA 16 DEB
1 41516U 00055MQ  26125.18363543  .00005427  00000-0  18901-2 0  9995
2 41516  98.6681 213.9676 0010582 268.9344  91.0629 14.35762272520477
Epoch: 2026-05-05T04:24Z
TLE epoch observation values (Epoch: 2026-05-05T04:24:26.101Z)
Latitude
Longitude
-75.20329°
Altitude
775.62 km
Speed
7.466 km/s
True Right ascension
14h 15m 52s
True Declination
0° 00' 00"
Sunlit
Object was in full shadow at epoch
Visualization orbit readout
Latitude
Unknown
Longitude
Unknown
Altitude
Unknown
Speed
Unknown
Apparent Right ascension
Unknown
Apparent Declination
Unknown
Sunlit
N/A
Visualization observer readout
Local Sidereal Time
02:50:31
Azimuth
Unknown
Elevation
Unknown
Doppler factor
Unknown
Orbital elements
Apogee altitude
777.234 km
Perigee altitude
762.106 km
Semi-major axis
7,147.807 km
Eccentricity
0.00106
Inclination
98.6681°
RAAN
213.9676°
Arg. of periapsis
268.9344°
True anomaly
91.18414°
Mean anomaly
91.0629°
Eccentric anomaly
91.12352°
Mean motion
3.59157 °/min
Orbital period
100.23 mins
BSTAR
0.0018901
Loading maneuver chart data...
Computing Atmospheric mass density...
Loading historical data...
Loading historical data...
Loading historical data...
Loading historical data...
Loading historical data...
Loading historical data...
Loading historical data...

Documentation

Showing up to 5 results
|